Regional Weather Roundup
Issued by NWS Upton, NY

Current Version | Previous Version | Text Only | Print | Product List | Glossary On
Versions: 1 2 3 4 5 6 7 8 9 10 11 12 13 14 15 16 17 18 19 20 21 22 23 24 25 26 27 28 29 30 31 32 33 34 35 36 37 38 39 40 41 42 43 44 45 46 47 48 49 50
000 ASUS41 KOKX 210505 RWROKX REGIONAL WEATHER ROUNDUP NATIONAL WEATHER SERVICE NEW YORK NY 100 AM EDT TUE OCT 21 2014 NOTE: "FAIR" INDICATES FEW OR NO CLOUDS BELOW 12,000 FEET WITH NO SIGNIFICANT WEATHER AND/OR OBSTRUCTIONS TO VISIBILITY. NYZ071-072-176-178-NJZ106-104-210600- NEW YORK CITY METRO AREA CITY SKY/WX TMP DP RH WIND PRES REMARKS CENTRAL PARK MOCLDY 59 41 51 SW6 29.98F LAGUARDIA APRT CLOUDY 57 44 62 S5 29.96F KENNEDY INTL MOCLDY 57 45 64 SW9 29.98S NEWARK/LIBERTY MOCLDY 54 44 69 CALM 29.96F BRNX BOT. GARD N/A 55 43 62 CALM 29.98F TETERBORO MOCLDY 54 44 69 SW3 29.95F $$ NYZ177-179-078>081-210600- LONG ISLAND NEW YORK CITY SKY/WX TMP DP RH WIND PRES REMARKS FARMINGDALE PTCLDY 57 46 66 SW5 29.97F ISLIP PTCLDY 58 46 64 SW8 29.96S SHIRLEY MOCLDY 59 49 69 SW6 29.98F WESTHAMPTON MOCLDY 62 48 60 SW9 29.99S MONTAUK POINT N/A 61 50 67 S8G22 30.01S $$ NYZ052-065-067-210600- HUDSON VALLEY CITY SKY/WX TMP DP RH WIND PRES REMARKS WHITE PLAINS MOCLDY 54 43 66 VRB3 29.96S NEWBURGH MOCLDY 54 43 66 CALM 29.95F MONTGOMERY CLOUDY 45 40 82 CALM 29.94F POUGHKEEPSIE CLOUDY 48 42 80 CALM 29.95S ALBANY CLOUDY 52 38 58 S7 29.93S $$ NJZ001-105-106-008-010-013-015-019>022-104-210600- NEW JERSEY CITY SKY/WX TMP DP RH WIND PRES REMARKS NEWARK/LIBERTY MOCLDY 54 44 69 CALM 29.96F TETERBORO MOCLDY 54 44 69 SW3 29.95F CALDWELL CLOUDY 48 41 76 CALM 29.96F MORRISTOWN CLOUDY 46 43 87 CALM 29.95F SOMERVILLE CLOUDY 46 41 82 NW3 29.94F SUSSEX CLOUDY 48 43 82 CALM 29.93F ANDOVER N/A 49 43 80 CALM 29.94F TRENTON CLOUDY 52 44 74 CALM 29.95F MILLVILLE CLOUDY 50 47 89 CALM 29.95F ATLANTIC CITY MOCLDY 55 46 71 S5 29.96F WRIGHTSTOWN CLOUDY 52 45 77 S1 29.93F TOMS RIVER MOCLDY 46 43 87 CALM 29.96F BELMAR MOCLDY 54 41 62 S5 29.95F $$ PAZ047>061-062-071-210600- EASTERN PENNSYLVANIA CITY SKY/WX TMP DP RH WIND PRES REMARKS PHILADELPHIA CLOUDY 56 44 64 W5 29.96S ALLENTOWN LGT RAIN 53 47 79 E3 29.92F SCRANTON CLOUDY 55 43 63 W7 29.89F $$ CTZ002-004>006-009-010-012-RIZ004-006-007-MAZ004-011-015-210600- SOUTHERN NEW ENGLAND IN CT CITY SKY/WX TMP DP RH WIND PRES REMARKS BRADLEY INTL CLOUDY 47 41 80 CALM 29.97S HARTFORD MOCLDY 47 43 86 SE7 29.98S DANBURY CLOUDY 45 30 55 CALM 29.98S WTRBRY/OXFORD CLOUDY 50 39 66 CALM 29.97F BRIDGEPORT MOCLDY 61 48 62 SW15 29.97S MERIDEN MOCLDY 42 40 92 CALM 29.98S NEW HAVEN PTCLDY 63 49 60 SW10 29.97S CHESTER FAIR 48 45 87 S3 29.99S GROTON MOCLDY 51 48 89 NW3 29.99S WILLIMANTIC PTCLDY 41 38 89 CALM 30.00F IN RI CITY SKY/WX TMP DP RH WIND PRES REMARKS PROVIDENCE CLOUDY 46 41 82 CALM 30.01S BLOCK ISLAND MOCLDY 61 48 63 SW16 30.00S WESTERLY CLOUDY 49 45 86 N3 30.00S IN MA CITY SKY/WX TMP DP RH WIND PRES REMARKS BOSTON CLOUDY 50 42 74 S6 30.01S WORCESTER CLOUDY 45 40 82 SW8 29.98S WESTFIELD MOCLDY 45 41 86 NW3 29.97F PROVINCETOWN CLOUDY 52 45 76 S5 30.04R NANTUCKET CLOUDY 59 48 67 SW9 30.04S $$ ANZ330-335-338-340-345-350-353-355-210600- COASTAL MARINE OBSERVATIONS STATION/POSITION TIME SKY/WX TEMP WIND PRES VSBY WAVE AIR SEA DIR/SP/G HT/PER (UTC) (F) (DEG/KT/KT) (MB) (MI) (FT/S) NY HARB ENTRANCE NOT AVBL 4S FIRE IS 0500 63 N/A 6/ 6 20S FIRE ISLAND 0500 63 63 230/ 14/ 16 1014.8 6/ 6 23SW MTP 0500 N/A 6/ 6 HUDSON CANYON 0500 64 66 230/ 17/ 21 1015.4 5/ 6 EXECUTION ROCKS 0500 60 63 230/ 14/ 17 N/A WESTERN LI SOUND 0500 59 200/ 10/ 12 N/A 0 CENTRAL LI SOUND 0400 61 63 220/ 12/ 16 N/A 2/ 3 EASTERN LI SOUND 0400 62 64 230/ 10/ 12 N/A ROBBINS REEF 0500 57 200/ 7/ 8 1013.1 $$ >>>>>>>>>>>>>>>>>>>>>>>>>>>> KEY <<<<<<<<<<<<<<<<<<<<<<<<<<< > < > SKY/WX - SKY CONDITION/PRESENT WEATHER < > TMP - TEMPERATURE IN FAHRENHEIT < > DP - DEWPOINT IN FAHRENHEIT < > RH - RELATIVE HUMIDITY IN PERCENT < > WIND - DIRECTION AND SPEED IN MPH < > PRES - MEAN SEA LEVEL PRESSURE IN INCHES OF HG < > WCI - WIND CHILL INDEX < > VSB - VISIBILITY IN MILES < > HX - HEAT INDEX < > TC - TEMPERATURE IN CELSIUS < > VRB - VARIABLE WIND DIRECTION < > < >>>>>>>>>>>>>>>>>>>>>>>>>>>> KEY <<<<<<<<<<<<<<<<<<<<<<<<<<<

USA.gov is the U.S. government's official web portal to all federal, state and local government web resources and services.